Location: DARK SKY Beskydy - Park tmavé oblohy, www.darkskybeskydy.cz
(49.4926°N, 18.5016°E)
Time: 12:15:38
(UTC+02:00)

Vanguard 1 - Pass Details

Date: 01 March 2024
Orbit: 653 x 3825 km, 34.2° (Epoch: 12 April)

Event Time Altitude Azimuth Distance (km) Brightness Sun altitude
Rises 00:09:36 0° 275° (W) 6,757 14.4 -47.9°
Reaches altitude 10° 00:14:27 10° 266° (W) 6,115 14.0 -47.9°
Enters shadow 00:18:49 19° 256° (WSW) 5,668 13.7 -47.8°
Maximum altitude 00:30:49 31° 214° (SW) 5,255 - -47.4°
Drops below altitude 10° 00:48:57 10° 162° (SSE) 6,694 - -46.7°
Sets 00:54:44 0° 153° (SSE) 7,450 - -46.4°
